FW5161 Weather Reports


Display with metric or nautical units.
time (UTC)temp
F
wind
direction
speed
MPH
gust
MPH
rain 1hr
in
rain 24hr
in
rain mn
in
humidity
%
barometer
mb
20260509224729 66 316 3.0 5.0 0.00 0.00 0.00 53 1018.3
20260509224230 66 313 2.0 5.0 0.00 0.00 0.00 52 1018.4
20260509223954 67 308 3.0 8.0 0.00 0.00 0.00 54 1018.5
20260509222729 66 316 4.0 9.0 0.00 0.00 0.00 55 1018.6
20260509222500 66 335 3.0 8.0 0.00 0.00 0.00 54 1018.7
20260509221729 67 317 2.0 7.0 0.00 0.00 0.00 53 1018.8
20260509221229 67 309 3.0 7.0 0.00 0.00 0.00 55 1019.0
20260509220729 65 314 4.0 8.0 0.00 0.00 0.00 55 1019.0
20260509220225 66 318 3.0 8.0 0.00 0.00 0.00 54 1019.1
20260509215719 66 317 3.0 5.0 0.00 0.00 0.00 57 1019.0
20260509215441 65 322 3.0 6.0 0.00 0.00 0.00 63 1019.1
20260509214706 65 322 4.0 6.0 0.00 0.00 0.00 60 1019.1
20260509214207 65 318 4.0 6.0 0.00 0.00 0.00 60 1019.2
20260509213708 65 303 2.0 5.0 0.00 0.00 0.00 63 1019.2
20260509213208 64 320 2.0 4.0 0.00 0.00 0.00 61 1019.3
20260509212202 63 307 2.0 4.0 0.00 0.00 0.00 65 1019.4
20260509211700 62 8 3.0 5.0 0.00 0.00 0.00 65 1019.4
20260509211201 63 321 3.0 5.0 0.00 0.00 0.00 66 1019.5
20260509210701 64 310 3.0 5.0 0.00 0.00 0.00 66 1019.4
20260509210202 62 314 3.0 5.0 0.00 0.00 0.00 67 1019.4
20260509205700 63 295 2.0 4.0 0.00 0.00 0.00 65 1019.6
20260509205202 64 16 3.0 5.0 0.00 0.00 0.00 64 1019.6
20260509204701 63 352 3.0 6.0 0.00 0.00 0.00 65 1019.6
20260509204202 62 317 2.0 6.0 0.00 0.00 0.00 67 1019.7
20260509203701 62 295 2.0 5.0 0.00 0.00 0.00 66 1019.8
20260509203201 61 311 3.0 5.0 0.00 0.00 0.00 70 1019.8
20260509202701 61 318 3.0 5.0 0.00 0.00 0.00 70 1019.7
20260509202200 61 312 2.0 5.0 0.00 0.00 0.00 71 1019.7
20260509201710 62 316 2.0 5.0 0.00 0.00 0.00 69 1019.5
20260509201431 62 317 2.0 4.0 0.00 0.00 0.00 69 1019.6
20260509200934 62 334 2.0 4.0 0.00 0.00 0.00 71 1019.6
20260509200204 60 271 2.0 4.0 0.00 0.00 0.00 69 1019.8
20260509195704 60 301 3.0 5.0 0.00 0.00 0.00 72 1019.9
20260509195204 60 316 3.0 5.0 0.00 0.00 0.00 72 1019.9
20260509194704 61 319 2.0 4.0 0.00 0.00 0.00 70 1019.9
20260509194430 61 321 2.0 4.0 0.00 0.00 0.00 70 1019.8
20260509193926 63 307 2.0 4.0 0.00 0.00 0.00 70 1019.9
20260509193204 60 319 2.0 4.0 0.00 0.00 0.00 71 1019.9
20260509192705 62 306 2.0 5.0 0.00 0.00 0.00 70 1020.0
20260509192200 62 301 2.0 5.0 0.00 0.00 0.00 71 1020.1
20260509191701 61 309 3.0 5.0 0.00 0.00 0.00 70 1020.1
20260509191200 60 330 3.0 5.0 0.00 0.00 0.00 72 1020.1
20260509190701 61 322 2.0 4.0 0.00 0.00 0.00 73 1020.1
20260509190201 61 314 2.0 4.0 0.00 0.00 0.00 71 1020.2
20260509185701 60 302 2.0 4.0 0.00 0.00 0.00 73 1020.3
20260509185201 60 322 2.0 4.0 0.00 0.00 0.00 74 1020.5
20260509184657 60 318 3.0 5.0 0.00 0.00 0.00 75 1020.7
20260509184151 60 317 3.0 5.0 0.00 0.00 0.00 74 1020.7
20260509183643 60 306 3.0 5.0 0.00 0.00 0.00 73 1020.6
20260509183136 60 307 2.0 5.0 0.00 0.00 0.00 75 1020.5
20260509182629 60 314 2.0 5.0 0.00 0.00 0.00 75 1020.3
20260509182351 60 324 2.0 5.0 0.00 0.00 0.00 77 1020.5
20260509181619 60 325 2.0 5.0 0.00 0.00 0.00 75 1020.5
20260509181114 59 316 2.0 5.0 0.00 0.00 0.00 76 1020.5
20260509180614 59 327 2.0 5.0 0.00 0.00 0.00 75 1020.5
20260509180116 59 49 2.0 5.0 0.00 0.00 0.00 78 1020.7
20260509175613 59 278 2.0 5.0 0.00 0.00 0.00 75 1020.6
20260509175339 59 290 2.0 4.0 0.00 0.00 0.00 77 1020.5
20260509174613 58 316 2.0 4.0 0.00 0.00 0.00 76 1020.5
20260509174116 58 323 3.0 4.0 0.00 0.00 0.00 76 1020.5
20260509173614 58 324 2.0 4.0 0.00 0.00 0.00 76 1020.5
20260509173111 58 330 2.0 4.0 0.00 0.00 0.00 78 1020.6
20260509172608 58 321 3.0 4.0 0.00 0.00 0.00 78 1020.5
20260509172337 58 301 2.0 4.0 0.00 0.00 0.00 78 1020.6
20260509171608 57 295 2.0 4.0 0.00 0.00 0.00 77 1020.7
20260509171108 56 257 2.0 4.0 0.00 0.00 0.00 78 1020.8
20260509170832 56 309 2.0 4.0 0.00 0.00 0.00 79 1020.7
20260509165607 57 258 2.0 4.0 0.00 0.00 0.00 77 1020.7
20260509165107 57 316 2.0 4.0 0.00 0.00 0.00 77 1020.8
20260509164606 57 236 2.0 4.0 0.00 0.00 0.00 76 1020.9
20260509164105 57 315 1.0 3.0 0.00 0.00 0.00 78 1020.9
20260509163605 56 335 0.0 3.0 0.00 0.00 0.00 78 1020.8
20260509163104 56 295 1.0 2.0 0.00 0.00 0.00 79 1020.8
20260509162605 56 279 1.0 3.0 0.00 0.00 0.00 79 1020.8
20260509162105 56 285 1.0 3.0 0.00 0.00 0.00 81 1020.9
20260509161605 56 317 1.0 3.0 0.00 0.00 0.00 80 1020.9
20260509161105 56 318 2.0 3.0 0.00 0.00 0.00 80 1020.9
20260509160603 56 279 1.0 3.0 0.00 0.00 0.00 82 1021.1
20260509155601 55 329 1.0 3.0 0.00 0.00 0.00 81 1021.1
20260509155101 55 349 0.0 2.0 0.00 0.00 0.00 82 1021.2
20260509154601 55 349 0.0 0.0 0.00 0.00 0.00 82 1021.2
20260509154100 55 349 0.0 0.0 0.00 0.00 0.00 81 1021.4
20260509153601 55 299 0.0 1.0 0.00 0.00 0.00 82 1021.3
20260509153335 55 335 0.0 2.0 0.00 0.00 0.00 82 1021.3
20260509152601 54 356 1.0 2.0 0.00 0.00 0.00 82 1021.3
20260509152102 55 37 1.0 2.0 0.00 0.00 0.00 83 1021.2
20260509151601 54 17 1.0 2.0 0.00 0.00 0.00 83 1021.3
20260509151102 54 336 1.0 3.0 0.00 0.00 0.00 83 1021.3
20260509150602 54 335 1.0 3.0 0.00 0.00 0.00 83 1021.3
20260509145601 54 299 1.0 3.0 0.00 0.00 0.00 84 1021.4
20260509145101 54 295 1.0 3.0 0.00 0.00 0.00 84 1021.4
20260509144602 53 285 0.0 2.0 0.00 0.00 0.00 84 1021.5
20260509144102 53 285 1.0 2.0 0.00 0.00 0.00 84 1021.5
20260509143601 53 285 1.0 2.0 0.00 0.00 0.00 84 1021.4
20260509143101 53 285 0.0 2.0 0.00 0.00 0.00 84 1021.4
20260509142830 53 285 0.0 2.0 0.00 0.00 0.00 83 1021.4
20260509142100 53 295 1.0 2.0 0.00 0.00 0.00 83 1021.4
20260509141601 53 28 1.0 3.0 0.00 0.00 0.00 83 1021.5
20260509141336 54 25 1.0 3.0 0.00 0.00 0.00 82 1021.6
20260509140602 54 35 1.0 3.0 0.00 0.00 0.00 82 1021.5
20260509140059 54 49 0.0 3.0 0.00 0.00 0.00 80 1021.5
20260509135558 54 60 0.0 2.0 0.00 0.00 0.00 81 1021.5
20260509135056 54 58 0.0 2.0 0.00 0.00 0.00 82 1021.6
20260509134827 53 114 0.0 1.0 0.00 0.00 0.00 82 1021.7
20260509134053 53 120 0.0 0.0 0.00 0.00 0.00 83 1021.7
20260509133553 53 118 0.0 0.0 0.00 0.00 0.00 82 1021.7
20260509133053 53 117 0.0 0.0 0.00 0.00 0.00 81 1021.6
20260509132552 54 117 0.0 0.0 0.00 0.00 0.00 81 1021.6
20260509132052 53 116 0.0 0.0 0.00 0.00 0.00 81 1021.6
20260509131549 53 135 0.0 0.0 0.00 0.00 0.00 80 1021.5
20260509131046 53 135 0.0 0.0 0.00 0.00 0.00 80 1021.4
20260509130545 53 135 0.0 0.0 0.00 0.00 0.00 80 1021.6
20260509130042 53 135 0.0 0.0 0.00 0.00 0.00 80 1021.6
20260509125540 53 135 0.0 0.0 0.00 0.00 0.00 80 1021.5
20260509125038 53 135 0.0 0.0 0.00 0.00 0.00 79 1021.5
20260509124538 53 135 0.0 0.0 0.00 0.00 0.00 80 1021.4
20260509124038 53 135 0.0 0.0 0.00 0.00 0.00 80 1021.4
20260509123537 53 135 0.0 0.0 0.00 0.00 0.00 80 1021.4
20260509123034 53 135 0.0 0.0 0.00 0.00 0.00 80 1021.4
20260509122801 53 135 0.0 0.0 0.00 0.00 0.00 80 1021.5
20260509122030 53 135 0.0 0.0 0.00 0.00 0.00 81 1021.5
20260509121529 53 135 0.0 0.0 0.00 0.00 0.00 81 1021.6
20260509121029 53 135 0.0 0.0 0.00 0.00 0.00 81 1021.6
20260509120529 53 135 0.0 0.0 0.00 0.00 0.00 81 1021.6
20260509120034 53 141 0.0 0.0 0.00 0.00 0.00 80 1021.6
20260509115532 54 140 0.0 0.0 0.00 0.00 0.00 79 1021.7
20260509115302 54 139 0.0 0.0 0.00 0.00 0.00 78 1021.5
20260509114529 54 140 0.0 0.0 0.00 0.00 0.00 78 1021.7
20260509114259 54 140 0.0 0.0 0.00 0.00 0.00 78 1021.7
20260509113529 54 140 0.0 0.0 0.00 0.00 0.00 78 1021.7
20260509113030 54 140 0.0 0.0 0.00 0.00 0.00 78 1021.6
20260509112529 54 140 0.0 0.0 0.00 0.00 0.00 77 1021.7
20260509112029 54 140 0.0 0.0 0.00 0.00 0.00 76 1021.6
20260509111029 54 132 0.0 3.0 0.00 0.00 0.00 77 1021.6
20260509110529 54 132 1.0 3.0 0.00 0.00 0.00 78 1021.6
20260509110029 54 139 1.0 5.0 0.00 0.00 0.00 78 1021.6
20260509105529 54 142 3.0 6.0 0.00 0.00 0.00 77 1021.6
20260509105033 54 114 2.0 6.0 0.00 0.00 0.00 78 1021.6
20260509104529 54 132 1.0 5.0 0.00 0.00 0.00 79 1021.5
20260509104023 54 116 0.0 2.0 0.00 0.00 0.00 79 1021.6
20260509103516 54 148 0.0 3.0 0.00 0.00 0.00 79 1021.6
20260509103011 54 148 1.0 3.0 0.00 0.00 0.00 79 1021.6
20260509102507 54 155 2.0 4.0 0.00 0.00 0.00 79 1021.5
20260509102008 53 174 2.0 4.0 0.00 0.00 0.00 80 1021.6
20260509101508 53 144 2.0 4.0 0.00 0.00 0.00 80 1021.4
20260509101008 53 163 1.0 3.0 0.00 0.00 0.00 80 1021.5
20260509100508 53 162 1.0 3.0 0.00 0.00 0.00 80 1021.5
20260509100008 53 163 1.0 3.0 0.00 0.00 0.00 80 1021.5
20260509095508 53 118 1.0 3.0 0.00 0.00 0.00 80 1021.5
20260509095008 53 85 1.0 3.0 0.00 0.00 0.00 80 1021.5
20260509094506 53 38 1.0 3.0 0.00 0.00 0.00 79 1021.4
20260509094006 53 34 1.0 2.0 0.00 0.00 0.00 79 1021.4
20260509093506 53 327 0.0 2.0 0.00 0.00 0.00 79 1021.4
20260509093006 53 326 0.0 2.0 0.00 0.00 0.00 79 1021.3
20260509092506 53 322 0.0 0.0 0.00 0.00 0.00 79 1021.3
20260509092005 53 322 0.0 1.0 0.00 0.00 0.00 79 1021.3
20260509091502 53 321 0.0 2.0 0.00 0.00 0.00 78 1021.3
20260509091231 54 321 0.0 4.0 0.00 0.00 0.00 78 1021.2
20260509090502 54 334 1.0 4.0 0.00 0.00 0.00 77 1021.2
20260509090234 54 156 1.0 4.0 0.00 0.00 0.00 77 1021.2
20260509085501 54 99 1.0 2.0 0.00 0.00 0.00 78 1021.2
20260509085000 54 101 1.0 2.0 0.00 0.00 0.00 78 1021.4
20260509084737 54 48 1.0 4.0 0.00 0.00 0.00 79 1021.4
20260509084001 54 50 1.0 4.0 0.00 0.00 0.00 78 1021.4
20260509083501 54 3 1.0 3.0 0.00 0.00 0.00 78 1021.5
20260509083007 54 351 0.0 2.0 0.00 0.00 0.00 78 1021.4
20260509082506 54 351 1.0 2.0 0.00 0.00 0.00 78 1021.5
20260509082004 55 350 1.0 4.0 0.00 0.00 0.00 77 1021.5
20260509081001 55 238 2.0 6.0 0.00 0.00 0.00 76 1021.4
20260509080502 55 320 2.0 6.0 0.00 0.00 0.00 75 1021.4
20260509080000 55 310 2.0 6.0 0.00 0.00 0.00 75 1021.4
20260509075501 55 164 2.0 6.0 0.00 0.00 0.00 76 1021.4
20260509074959 55 218 1.0 6.0 0.00 0.00 0.00 76 1021.5
20260509074453 55 193 1.0 4.0 0.00 0.00 0.00 77 1021.4
20260509073954 55 227 1.0 4.0 0.00 0.00 0.00 77 1021.3
20260509073451 55 221 2.0 5.0 0.00 0.00 0.00 77 1021.3
20260509072951 55 187 2.0 5.0 0.00 0.00 0.00 77 1021.4
20260509072717 55 245 2.0 6.0 0.00 0.00 0.00 78 1021.3
20260509071952 54 143 3.0 7.0 0.00 0.00 0.00 78 1021.3
20260509071722 54 147 3.0 7.0 0.00 0.00 0.00 77 1021.3
20260509070947 54 139 4.0 7.0 0.00 0.00 0.00 77 1021.3
20260509070447 54 147 4.0 8.0 0.00 0.00 0.00 78 1021.4
20260509065943 54 145 4.0 8.0 0.00 0.00 0.00 78 1021.3
20260509065443 54 147 4.0 7.0 0.00 0.00 0.00 78 1021.3
20260509064446 54 154 4.0 11.0 0.00 0.00 0.00 77 1021.3
20260509063946 54 146 5.0 11.0 0.00 0.00 0.00 77 1021.4
20260509063448 55 184 5.0 12.0 0.00 0.00 0.00 76 1021.4
20260509062948 55 140 5.0 12.0 0.00 0.00 0.00 76 1021.4
20260509062443 55 172 4.0 8.0 0.00 0.00 0.00 76 1021.3
20260509062208 55 147 4.0 8.0 0.00 0.00 0.00 76 1021.3
20260509061709 55 150 4.0 8.0 0.00 0.00 0.00 76 1021.3
20260509060943 55 143 4.0 8.0 0.00 0.00 0.00 75 1021.3
20260509060443 55 185 3.0 8.0 0.00 0.00 0.00 75 1021.4
20260509055943 55 145 4.0 9.0 0.00 0.00 0.00 75 1021.4
20260509055443 55 147 5.0 9.0 0.00 0.00 0.00 75 1021.4
20260509054944 55 155 5.0 9.0 0.00 0.00 0.00 74 1021.2
20260509054442 55 151 5.0 11.0 0.00 0.00 0.00 75 1021.4
20260509053936 55 149 5.0 11.0 0.00 0.00 0.00 75 1021.3
20260509053657 55 139 5.0 9.0 0.00 0.00 0.00 75 1021.3
20260509052932 55 151 6.0 11.0 0.00 0.00 0.00 75 1021.3
20260509052433 55 156 6.0 11.0 0.00 0.00 0.00 74 1021.3
20260509051931 55 157 6.0 14.0 0.00 0.00 0.00 74 1021.3
20260509051430 55 160 7.0 14.0 0.00 0.00 0.00 74 1021.3
20260509050930 55 170 8.0 15.0 0.00 0.00 0.00 73 1021.2
20260509050431 55 164 7.0 15.0 0.00 0.00 0.00 73 1021.2
20260509045930 55 169 7.0 16.0 0.00 0.00 0.00 73 1021.2
20260509045431 55 145 6.0 16.0 0.00 0.00 0.00 73 1021.2
20260509045150 55 159 6.0 14.0 0.00 0.00 0.00 73 1021.2
20260509044429 55 162 7.0 16.0 0.00 0.00 0.00 73 1021.2
20260509044200 55 168 8.0 16.0 0.00 0.00 0.00 72 1021.2
20260509043429 55 148 9.0 16.0 0.00 0.00 0.00 72 1021.0
20260509042932 55 133 9.0 19.0 0.00 0.00 0.00 72 1021.0
20260509042431 55 123 10.0 19.0 0.00 0.00 0.00 72 1021.0
20260509041933 55 83 11.0 20.0 0.00 0.00 0.00 72 1021.0
20260509041702 55 115 11.0 20.0 0.00 0.00 0.00 72 1021.0
20260509040929 55 106 12.0 22.0 0.00 0.00 0.00 72 1020.9
20260509040426 55 129 10.0 22.0 0.00 0.00 0.00 73 1020.7
20260509035919 55 146 8.0 16.0 0.00 0.00 0.00 73 1020.6
20260509035413 55 152 8.0 16.0 0.00 0.00 0.00 72 1020.6
20260509035130 55 164 8.0 18.0 0.00 0.00 0.00 72 1020.6
20260509034633 55 148 9.0 18.0 0.00 0.00 0.00 72 1020.6
20260509033907 55 120 10.0 19.0 0.00 0.00 0.00 72 1020.6
20260509033407 55 128 10.0 19.0 0.00 0.00 0.00 71 1020.6
20260509032902 55 123 10.0 18.0 0.00 0.00 0.00 71 1020.3
20260509032629 55 126 10.0 19.0 0.00 0.00 0.00 71 1020.5
20260509031901 55 151 9.0 19.0 0.00 0.00 0.00 71 1020.3
20260509031401 55 172 8.0 20.0 0.00 0.00 0.00 72 1020.3
20260509030901 55 120 10.0 20.0 0.00 0.00 0.00 72 1020.2
20260509030625 55 116 11.0 21.0 0.00 0.00 0.00 71 1020.2
20260509025902 55 147 11.0 21.0 0.00 0.00 0.00 71 1020.2
20260509025401 55 180 10.0 21.0 0.00 0.00 0.00 71 1020.1
20260509024902 55 137 10.0 23.0 0.00 0.00 0.00 71 1020.1
20260509024402 55 122 11.0 23.0 0.00 0.00 0.00 70 1020.0
20260509023902 55 122 12.0 21.0 0.00 0.00 0.00 70 1020.1
20260509023402 55 109 11.0 19.0 0.00 0.00 0.00 70 1019.9
20260509022901 55 91 10.0 19.0 0.00 0.00 0.00 69 1019.9
20260509022400 55 135 10.0 18.0 0.00 0.00 0.00 69 1020.0
20260509021901 55 123 11.0 21.0 0.00 0.00 0.00 69 1019.9
20260509021402 55 189 11.0 21.0 0.00 0.00 0.00 68 1019.8
20260509021127 56 114 10.0 19.0 0.00 0.00 0.00 68 1019.9
20260509020402 56 174 11.0 19.0 0.00 0.00 0.00 68 1019.8
20260509020124 56 135 9.0 19.0 0.00 0.00 0.00 68 1019.8
20260509015401 56 189 7.0 17.0 0.00 0.00 0.00 69 1019.8
20260509014901 56 105 7.0 16.0 0.00 0.00 0.00 68 1019.9
20260509014401 56 101 6.0 15.0 0.00 0.00 0.00 68 1019.9
20260509014139 57 203 6.0 16.0 0.00 0.00 0.00 67 1019.9
20260509013401 57 95 6.0 16.0 0.00 0.00 0.00 67 1019.8
20260509012901 57 96 6.0 14.0 0.00 0.00 0.00 66 1019.8
20260509012401 58 185 7.0 19.0 0.00 0.00 0.00 67 1019.7
20260509011903 57 89 7.0 19.0 0.00 0.00 0.00 67 1019.9
20260509011401 56 189 7.0 17.0 0.00 0.00 0.00 68 1019.8
20260509010901 56 219 7.0 18.0 0.00 0.00 0.00 67 1019.8
20260509010402 56 174 7.0 18.0 0.00 0.00 0.00 67 1019.8
20260509005901 56 91 7.0 18.0 0.00 0.00 0.00 67 1019.9
20260509005356 56 157 6.0 18.0 0.00 0.00 0.00 67 1019.8
20260509004855 56 95 7.0 20.0 0.00 0.00 0.00 67 1019.8
20260509004354 56 116 9.0 20.0 0.00 0.00 0.00 68 1019.7
20260509003854 56 155 10.0 19.0 0.00 0.00 0.00 68 1019.7
20260509003354 56 141 10.0 19.0 0.00 0.00 0.00 67 1019.8
20260509002855 56 141 10.0 20.0 0.00 0.00 0.00 68 1019.8
20260509002354 56 136 10.0 20.0 0.00 0.00 0.00 68 1019.9
20260509001854 56 86 10.0 22.0 0.00 0.00 0.00 69 1019.8
20260509001357 55 121 10.0 22.0 0.00 0.00 0.00 69 1019.8
20260509000857 55 122 9.0 19.0 0.00 0.00 0.00 70 1019.8
20260509000403 55 122 8.0 19.0 0.00 0.00 0.00 71 1019.8
20260508235857 55 143 6.0 19.0 0.00 0.00 0.00 70 1019.8
20260508235355 56 126 6.0 12.0 0.00 0.00 0.00 70 1019.8
20260508234853 56 124 7.0 16.0 0.00 0.00 0.00 66 1019.9
20260508234353 57 100 6.0 16.0 0.00 0.00 0.00 65 1019.8
20260508233850 57 136 5.0 14.0 0.00 0.00 0.00 65 1020.0
20260508233349 57 91 4.0 14.0 0.00 0.00 0.00 64 1019.9
20260508232849 58 239 4.0 8.0 0.00 0.00 0.00 64 1019.8
20260508232349 58 83 3.0 8.0 0.00 0.00 0.00 63 1019.9
20260508231351 59 47 5.0 14.0 0.00 0.00 0.00 62 1019.8
20260508231118 60 121 5.0 14.0 0.00 0.00 0.00 63 1019.8
20260508230347 59 155 5.0 13.0 0.00 0.00 0.00 66 1019.8
20260508225848 58 248 5.0 12.0 0.00 0.00 0.00 63 1019.8
20260508225349 58 118 4.0 13.0 0.00 0.00 0.00 63 1019.7
20260508224848 59 235 4.0 13.0 0.00 0.00 0.00 65 1019.7